Weather History for KAHQ - May, 2013

Change the Weather History Date:

Tuesday, May 14, 2013

  Actual Average Record
Temperature  
Mean Temperature 79 °F -  
Max Temperature 103 °F 74 °F 103 °F (2013)
Min Temperature 55 °F 46 °F 34 °F (1973)
Cooling Degree Days 14    
Growing Degree Days 29 (Base 50)    
Moisture  
Dew Point 48 °F    
Average Humidity 40    
Maximum Humidity 88    
Minimum Humidity 10    
Precipitation  
Precipitation 0.00 in - - ()
Sea Level Pressure  
Sea Level Pressure 29.73 in    
Wind  
Wind Speed 11 mph (SSW)    
Max Wind Speed 28 mph    
Max Gust Speed 39 mph    
Visibility 10 miles    
Events Rain    
Averages and records for this station are not official NWS values.
T = Trace of Precipitation, MM = Missing Value Source: NWS Daily Summary

Daily Weather History Graph

Daily Weather History Graph

Search for Another Location

Airport or City:

Trip Planner

Search our weather history database for the weather conditions in past years. The results will help you decide how hot, cold, wet, or windy it might be!

Date:

Astronomy

May. 14, 2013 Rise Set
Actual Time 6:08 AM CDT 8:37 PM CDT
Civil Twilight 5:37 AM CDT 9:08 PM CDT
Nautical Twilight 4:58 AM CDT 9:47 PM CDT
Astronomical Twilight 4:14 AM CDT 10:31 PM CDT
Moon 9:49 AM CDT (5/14) No Moon Set
Length of Visible Light 15h 31m
Length of Day
14h 28m
Waxing Crescent, 19% of the Moon is Illuminated
May 14
Waxing Crescent
May 17
First Quarter
May 24
Full
May 31
Last Quarter
Jun 8
New

Hourly Weather History & Observations

Time (CDT) Temp. Heat Index Dew Point Humidity Pressure Visibility Wind Dir Wind Speed Gust Speed Precip Events Conditions
12:15 AM 70.9 °F - 54.0 °F 55% 29.84 in 10.0 mi SW 12.7 mph - N/A   Clear
12:35 AM 70.5 °F - 54.1 °F 56% 29.84 in 10.0 mi SW 13.8 mph - N/A   Clear
12:55 AM 69.4 °F - 54.5 °F 59% 29.84 in 10.0 mi SW 10.4 mph - N/A   Clear
1:15 AM 69.6 °F - 54.5 °F 59% 29.83 in 10.0 mi SW 12.7 mph - N/A   Clear
1:35 AM 69.1 °F - 54.9 °F 60% 29.83 in 10.0 mi SW 10.4 mph - N/A   Clear
1:55 AM 68.0 °F - 55.0 °F 63% 29.82 in 10.0 mi SW 9.2 mph - N/A   Clear
2:15 AM 67.5 °F - 55.4 °F 65% 29.82 in 10.0 mi SW 8.1 mph - N/A   Clear
2:35 AM 66.6 °F - 55.4 °F 67% 29.81 in 10.0 mi SW 5.8 mph - N/A   Clear
2:55 AM 66.2 °F - 55.6 °F 69% 29.81 in 10.0 mi SW 6.9 mph - N/A   Clear
3:15 AM 65.8 °F - 55.8 °F 70% 29.80 in 10.0 mi Calm Calm - N/A   Clear
3:35 AM 64.4 °F - 55.4 °F 73% 29.80 in 10.0 mi Calm Calm - N/A   Clear
3:55 AM 65.7 °F - 55.8 °F 70% 29.80 in 10.0 mi Calm Calm - N/A   Clear
4:15 AM 61.9 °F - 54.3 °F 76% 29.79 in 10.0 mi Calm Calm - N/A   Clear
4:35 AM 57.7 °F - 52.7 °F 83% 29.79 in 10.0 mi Calm Calm - N/A   Clear
4:55 AM 59.0 °F - 53.6 °F 82% 29.79 in 10.0 mi SE 3.5 mph - N/A   Clear
5:15 AM 57.6 °F - 52.9 °F 84% 29.79 in 10.0 mi Calm Calm - N/A   Clear
5:35 AM 57.2 °F - 52.7 °F 85% 29.79 in 10.0 mi SSE 4.6 mph - N/A   Clear
5:55 AM 55.4 °F - 51.8 °F 88% 29.78 in 10.0 mi SSE 4.6 mph - N/A   Clear
6:15 AM 55.2 °F - 51.4 °F 87% 29.78 in 10.0 mi SSE 4.6 mph - N/A   Clear
6:35 AM 56.3 °F - 52.7 °F 88% 29.78 in 10.0 mi SSE 5.8 mph - N/A   Clear
6:55 AM 57.0 °F - 53.4 °F 88% 29.78 in 10.0 mi SSE 5.8 mph - N/A   Clear
7:15 AM 59.7 °F - 55.4 °F 86% 29.78 in 10.0 mi South 4.6 mph - N/A   Clear
7:35 AM 62.8 °F - 56.8 °F 81% 29.77 in 10.0 mi South 5.8 mph - N/A   Clear
7:55 AM 64.4 °F - 57.2 °F 77% 29.77 in 10.0 mi South 3.5 mph - N/A   Clear
8:15 AM 66.9 °F - 57.9 °F 73% 29.77 in 10.0 mi South 3.5 mph - N/A   Clear
8:35 AM 70.3 °F - 57.6 °F 64% 29.77 in 10.0 mi SSW 5.8 mph - N/A   Clear
8:55 AM 73.4 °F - 57.7 °F 58% 29.76 in 10.0 mi SSW 5.8 mph - N/A   Clear
9:15 AM 76.5 °F - 56.3 °F 50% 29.76 in 10.0 mi SSW 6.9 mph - N/A   Clear
9:35 AM 80.1 °F 80.1 °F 54.1 °F 41% 29.75 in 10.0 mi SW 9.2 mph - N/A   Clear
9:55 AM 82.9 °F - 52.2 °F 34% 29.74 in 10.0 mi SSW 9.2 mph - N/A   Clear
10:15 AM 84.4 °F 82.8 °F 53.4 °F 34% 29.74 in 10.0 mi South 5.8 mph - N/A   Clear
10:35 AM 86.7 °F - 52.0 °F 30% 29.73 in 10.0 mi SSW 9.2 mph - N/A   Clear
10:55 AM 90.1 °F - 50.2 °F 25% 29.73 in 10.0 mi SSW 11.5 mph - N/A   Clear
11:15 AM 92.1 °F - 50.2 °F 24% 29.73 in 10.0 mi SW 12.7 mph - N/A   Clear
11:35 AM 95.2 °F - 47.3 °F 19% 29.72 in 10.0 mi SSW 12.7 mph - N/A   Clear
11:55 AM 97.2 °F - 45.3 °F 17% 29.72 in 10.0 mi SSW 17.3 mph 20.7 mph N/A   Clear
12:15 PM 98.4 °F - 43.2 °F 15% 29.71 in 10.0 mi SSW 19.6 mph 25.3 mph N/A   Clear
12:35 PM 98.8 °F - 41.2 °F 14% 29.70 in 10.0 mi SW 26.5 mph 32.2 mph N/A   Clear
12:55 PM 99.9 °F - 41.7 °F 14% 29.69 in 10.0 mi SSW 23.0 mph 32.2 mph N/A   Clear
1:15 PM 100.9 °F - 40.5 °F 13% 29.69 in 10.0 mi SSW 23.0 mph 28.8 mph N/A   Clear
1:35 PM 101.7 °F - 40.6 °F 12% 29.68 in 10.0 mi SSW 20.7 mph 34.5 mph N/A   Clear
1:55 PM 101.7 °F - 39.9 °F 12% 29.68 in 10.0 mi SW 23.0 mph 31.1 mph N/A   Clear
2:15 PM 102.2 °F - 37.0 °F 11% 29.67 in 10.0 mi SSW 19.6 mph 31.1 mph N/A   Clear
2:35 PM 103.3 °F - 37.9 °F 11% 29.67 in 10.0 mi SSW 21.9 mph 33.4 mph N/A   Clear
2:55 PM 103.1 °F - 36.5 °F 10% 29.67 in 10.0 mi SSW 24.2 mph 39.1 mph N/A   Clear
3:15 PM 102.7 °F - 37.9 °F 11% 29.66 in 10.0 mi SSW 27.6 mph 34.5 mph N/A   Clear
3:35 PM 102.2 °F - 37.6 °F 11% 29.65 in 10.0 mi SSW 26.5 mph 34.5 mph N/A   Clear
3:55 PM 102.6 °F - 38.3 °F 11% 29.65 in 10.0 mi SW 23.0 mph 38.0 mph N/A   Clear
4:15 PM 101.7 °F - 37.8 °F 11% 29.64 in 10.0 mi SSW 26.5 mph 38.0 mph N/A   Clear
4:35 PM 100.9 °F - 38.8 °F 12% 29.63 in 10.0 mi SSW 23.0 mph 36.8 mph N/A   Clear
4:55 PM 100.8 °F - 39.6 °F 12% 29.63 in 10.0 mi SSW 26.5 mph 33.4 mph N/A   Clear
5:15 PM 97.7 °F - 40.3 °F 14% 29.64 in 10.0 mi SW 24.2 mph 32.2 mph N/A   Clear
5:35 PM 95.9 °F - 42.3 °F 16% 29.66 in 10.0 mi SW 17.3 mph 26.5 mph N/A   Clear
5:55 PM 94.1 °F - 42.6 °F 17% 29.65 in 10.0 mi WSW 13.8 mph 27.6 mph N/A   Mostly Cloudy
6:15 PM 94.1 °F - 41.5 °F 16% 29.64 in 10.0 mi SSW 17.3 mph 29.9 mph N/A Rain Light Rain
6:35 PM 93.2 °F - 45.5 °F 19% 29.65 in 10.0 mi SSW 12.7 mph - N/A   Clear
6:55 PM 90.5 °F - 45.7 °F 21% 29.65 in 10.0 mi West 5.8 mph - N/A   Clear
7:15 PM 92.1 °F - 44.1 °F 19% 29.64 in 10.0 mi SW 20.7 mph 26.5 mph N/A   Clear
7:35 PM 93.2 °F - 43.3 °F 18% 29.65 in 10.0 mi SW 20.7 mph 33.4 mph N/A   Clear
7:55 PM 91.2 °F - 43.9 °F 19% 29.66 in 10.0 mi SW 18.4 mph 31.1 mph N/A   Clear
8:15 PM 89.4 °F - 44.8 °F 21% 29.67 in 10.0 mi SW 12.7 mph 18.4 mph N/A   Clear
8:35 PM 87.6 °F - 45.1 °F 23% 29.67 in 10.0 mi SW 10.4 mph - N/A   Clear
8:55 PM 82.6 °F - 47.7 °F 29% 29.68 in 10.0 mi WSW 6.9 mph - N/A   Clear
9:15 PM 82.9 °F - 46.6 °F 28% 29.70 in 10.0 mi WSW 5.8 mph - N/A   Clear
9:55 PM 84.6 °F - 43.5 °F 24% 29.75 in 10.0 mi West 5.8 mph - N/A   Clear
10:15 PM 85.6 °F - 41.9 °F 21% 29.77 in 10.0 mi ENE 6.9 mph - N/A   Clear
10:35 PM 82.0 °F - 40.6 °F 23% 29.77 in 10.0 mi NNE 4.6 mph - N/A   Clear
10:55 PM 81.9 °F - 39.0 °F 22% 29.77 in 10.0 mi NNE 11.5 mph - N/A   Clear
11:15 PM 79.5 °F - 38.1 °F 23% 29.77 in 10.0 mi NNE 11.5 mph - N/A   Clear
11:35 PM 76.6 °F - 38.5 °F 25% 29.78 in 10.0 mi North 9.2 mph - N/A   Clear
11:55 PM 72.7 °F - 39.6 °F 30% 29.79 in 10.0 mi North 6.9 mph - N/A   Clear